contact:dominique.lefevre@mio.osupytheas.fr, maurice.libes@osupytheas.fr, didier.mallarino@osupytheas.fr
Project:EMSO http://www.emso-fr.org/EMSO-France
Depth: 2436.0 m
Title:EMSO Ligure Ouest : Data MII capteur CSTAR
DateTime,Latitude,Longitude,Instrument_Serial,Reference_Counts,Signal_Counts,Corrected_Signal_raw_counts,Calculated_Beam_c_inverse_meters,Internal_thermistor_counts
DateTime,Latitude,Longitude,Instrument_Serial,Reference_Counts,Signal_Counts,Corrected_Signal_raw_counts,Calculated_Beam_c_inverse_meters,Internal_thermistor_counts
2022-10-11T00:01:34,42.805,6.029,CST-1368DR,4547,5054,11828,01.111,551
2022-10-11T00:04:36,42.805,6.029,CST-1368DR,4547,5052,11823,01.113,551
2022-10-11T00:07:37,42.805,6.029,CST-1368DR,4547,5048,11814,01.116,551
2022-10-11T00:10:39,42.805,6.029,CST-1368DR,4547,5050,11820,01.114,551
2022-10-11T00:13:41,42.805,6.029,CST-1368DR,4547,5052,11824,01.113,551
2022-10-11T00:16:42,42.805,6.029,CST-1368DR,4547,5053,11826,01.112,551
2022-10-11T00:19:44,42.805,6.029,CST-1368DR,4547,5053,11825,01.112,551
2022-10-11T00:22:45,42.805,6.029,CST-1368DR,4547,5054,11828,01.111,551
2022-10-11T00:25:47,42.805,6.029,CST-1368DR,4547,5056,11833,01.110,551
2022-10-11T00:28:48,42.805,6.029,CST-1368DR,4547,5055,11830,01.111,551
2022-10-11T00:31:50,42.805,6.029,CST-1368DR,4547,5052,11823,01.113,551
2022-10-11T00:34:52,42.805,6.029,CST-1368DR,4547,5053,11825,01.112,551
2022-10-11T00:37:53,42.805,6.029,CST-1368DR,4547,5055,11830,01.111,551
2022-10-11T00:40:55,42.805,6.029,CST-1368DR,4547,5052,11824,01.113,551
2022-10-11T00:43:56,42.805,6.029,CST-1368DR,4547,5053,11825,01.112,551
2022-10-11T00:46:58,42.805,6.029,CST-1368DR,4547,5052,11824,01.113,551
2022-10-11T00:49:59,42.805,6.029,CST-1368DR,4547,5054,11827,01.112,551
2022-10-11T00:53:01,42.805,6.029,CST-1368DR,4547,5046,11810,01.117,551
2022-10-11T00:56:03,42.805,6.029,CST-1368DR,4547,5050,11818,01.115,551
2022-10-11T00:59:04,42.805,6.029,CST-1368DR,4547,5053,11827,01.112,551
2022-10-11T01:02:06,42.805,6.029,CST-1368DR,4547,5054,11829,01.111,551
2022-10-11T01:05:07,42.805,6.029,CST-1368DR,4547,5055,11831,01.110,551
2022-10-11T01:08:09,42.805,6.029,CST-1368DR,4547,5054,11828,01.111,551
2022-10-11T01:11:11,42.805,6.029,CST-1368DR,4547,5055,11830,01.111,551
2022-10-11T01:14:12,42.805,6.029,CST-1368DR,4547,5055,11830,01.111,551
2022-10-11T01:17:14,42.805,6.029,CST-1368DR,4547,5050,11820,01.114,551
2022-10-11T01:20:15,42.805,6.029,CST-1368DR,4547,5057,11834,01.109,551
2022-10-11T01:23:17,42.805,6.029,CST-1368DR,4547,5054,11828,01.111,551
2022-10-11T01:26:18,42.805,6.029,CST-1368DR,4547,5055,11830,01.111,551
2022-10-11T01:29:20,42.805,6.029,CST-1368DR,4547,5056,11833,01.110,551
2022-10-11T01:32:22,42.805,6.029,CST-1368DR,4547,5055,11830,01.111,551
2022-10-11T01:35:23,42.805,6.029,CST-1368DR,4547,5055,11830,01.111,551
2022-10-11T01:38:25,42.805,6.029,CST-1368DR,4547,5056,11832,01.110,551
2022-10-11T01:41:26,42.805,6.029,CST-1368DR,4547,5054,11828,01.111,551
2022-10-11T01:44:28,42.805,6.029,CST-1368DR,4547,5053,11825,01.112,551
2022-10-11T01:47:29,42.805,6.029,CST-1368DR,4547,5051,11820,01.114,551
2022-10-11T01:50:31,42.805,6.029,CST-1368DR,4547,5055,11831,01.110,551
2022-10-11T01:53:33,42.805,6.029,CST-1368DR,4547,5054,11828,01.111,551
2022-10-11T01:56:34,42.805,6.029,CST-1368DR,4547,5050,11818,01.115,551
2022-10-11T01:59:36,42.805,6.029,CST-1368DR,4547,5053,11826,01.112,551
2022-10-11T02:02:37,42.805,6.029,CST-1368DR,4547,5053,11825,01.112,551
2022-10-11T02:05:39,42.805,6.029,CST-1368DR,4547,5056,11833,01.110,551
2022-10-11T02:08:41,42.805,6.029,CST-1368DR,4547,5058,11837,01.108,551
2022-10-11T02:11:42,42.805,6.029,CST-1368DR,4547,5057,11836,01.109,551
2022-10-11T02:14:44,42.805,6.029,CST-1368DR,4547,5054,11827,01.112,551
2022-10-11T02:17:45,42.805,6.029,CST-1368DR,4547,5053,11825,01.112,551
2022-10-11T02:20:47,42.805,6.029,CST-1368DR,4547,5055,11831,01.110,551
2022-10-11T02:23:48,42.805,6.029,CST-1368DR,4547,5055,11830,01.111,551
2022-10-11T02:26:50,42.805,6.029,CST-1368DR,4547,5056,11834,01.109,551
2022-10-11T02:29:52,42.805,6.029,CST-1368DR,4547,5056,11833,01.110,551
2022-10-11T02:32:53,42.805,6.029,CST-1368DR,4547,5055,11831,01.110,551
2022-10-11T02:35:55,42.805,6.029,CST-1368DR,4547,5054,11829,01.111,551
2022-10-11T02:38:56,42.805,6.029,CST-1368DR,4547,5055,11830,01.111,551
2022-10-11T02:41:58,42.805,6.029,CST-1368DR,4547,5054,11829,01.111,551
2022-10-11T02:44:59,42.805,6.029,CST-1368DR,4547,5054,11829,01.111,551
2022-10-11T02:48:01,42.805,6.029,CST-1368DR,4547,5053,11825,01.112,551
2022-10-11T02:51:03,42.805,6.029,CST-1368DR,4547,5056,11834,01.109,551
2022-10-11T02:54:04,42.805,6.029,CST-1368DR,4547,5054,11827,01.112,551
2022-10-11T02:57:06,42.805,6.029,CST-1368DR,4547,5055,11831,01.110,551
2022-10-11T03:00:07,42.805,6.029,CST-1368DR,4547,5050,11818,01.115,551
2022-10-11T03:03:09,42.805,6.029,CST-1368DR,4547,5051,11822,01.113,551
2022-10-11T03:06:11,42.805,6.029,CST-1368DR,4547,5052,11823,01.113,551
2022-10-11T03:09:12,42.805,6.029,CST-1368DR,4547,5048,11813,01.116,551
2022-10-11T03:12:14,42.805,6.029,CST-1368DR,4547,5050,11818,01.115,551
2022-10-11T03:15:15,42.805,6.029,CST-1368DR,4547,5051,11820,01.114,551
2022-10-11T03:18:17,42.805,6.029,CST-1368DR,4547,5049,11817,01.115,551
2022-10-11T03:21:18,42.805,6.029,CST-1368DR,4547,5050,11819,01.114,551
2022-10-11T03:24:20,42.805,6.029,CST-1368DR,4547,5050,11818,01.115,551
2022-10-11T03:27:22,42.805,6.029,CST-1368DR,4547,5050,11820,01.114,551
2022-10-11T03:30:23,42.805,6.029,CST-1368DR,4547,5051,11820,01.114,551
2022-10-11T03:33:25,42.805,6.029,CST-1368DR,4547,5050,11818,01.115,551
2022-10-11T03:36:26,42.805,6.029,CST-1368DR,4547,5052,11824,01.113,551
2022-10-11T03:39:28,42.805,6.029,CST-1368DR,4547,5053,11825,01.112,551
2022-10-11T03:42:30,42.805,6.029,CST-1368DR,4547,5051,11821,01.114,551
2022-10-11T03:45:31,42.805,6.029,CST-1368DR,4547,5050,11818,01.115,551
2022-10-11T03:48:33,42.805,6.029,CST-1368DR,4547,5053,11825,01.112,551
2022-10-11T03:51:34,42.805,6.029,CST-1368DR,4547,5052,11824,01.113,551
2022-10-11T03:54:36,42.805,6.029,CST-1368DR,4547,5048,11813,01.116,551
2022-10-11T03:57:37,42.805,6.029,CST-1368DR,4547,5053,11827,01.112,551
2022-10-11T04:00:39,42.805,6.029,CST-1368DR,4547,5051,11821,01.114,551
2022-10-11T04:03:41,42.805,6.029,CST-1368DR,4547,5053,11825,01.112,551
2022-10-11T04:06:42,42.805,6.029,CST-1368DR,4547,5055,11830,01.111,551
2022-10-11T04:09:44,42.805,6.029,CST-1368DR,4547,5051,11821,01.114,551
2022-10-11T04:12:45,42.805,6.029,CST-1368DR,4547,5054,11828,01.111,551
2022-10-11T04:15:47,42.805,6.029,CST-1368DR,4547,5054,11828,01.111,551
2022-10-11T04:18:48,42.805,6.029,CST-1368DR,4547,5053,11825,01.112,551
2022-10-11T04:21:50,42.805,6.029,CST-1368DR,4547,5050,11818,01.115,551
2022-10-11T04:24:52,42.805,6.029,CST-1368DR,4547,5052,11823,01.113,551
2022-10-11T04:27:53,42.805,6.029,CST-1368DR,4547,5054,11828,01.111,551
2022-10-11T04:30:55,42.805,6.029,CST-1368DR,4547,5053,11825,01.112,551
2022-10-11T04:33:56,42.805,6.029,CST-1368DR,4547,5051,11821,01.114,551
2022-10-11T04:36:58,42.805,6.029,CST-1368DR,4547,5050,11818,01.115,551
2022-10-11T04:40:00,42.805,6.029,CST-1368DR,4547,5047,11813,01.116,551
2022-10-11T04:43:01,42.805,6.029,CST-1368DR,4547,5050,11819,01.114,551
2022-10-11T04:46:03,42.805,6.029,CST-1368DR,4547,5054,11828,01.111,551
2022-10-11T04:49:04,42.805,6.029,CST-1368DR,4547,5053,11825,01.112,551
2022-10-11T04:52:06,42.805,6.029,CST-1368DR,4547,5052,11824,01.113,551
2022-10-11T04:55:07,42.805,6.029,CST-1368DR,4547,5050,11819,01.114,551
2022-10-11T04:58:09,42.805,6.029,CST-1368DR,4547,5052,11824,01.113,551
2022-10-11T05:01:11,42.805,6.029,CST-1368DR,4547,5050,11818,01.115,551
2022-10-11T05:04:12,42.805,6.029,CST-1368DR,4547,5051,11821,01.114,551
2022-10-11T05:07:14,42.805,6.029,CST-1368DR,4547,5051,11822,01.113,551
2022-10-11T05:10:15,42.805,6.029,CST-1368DR,4547,5053,11827,01.112,551
2022-10-11T05:13:17,42.805,6.029,CST-1368DR,4547,5052,11824,01.113,551
2022-10-11T05:16:18,42.805,6.029,CST-1368DR,4547,5047,11811,01.117,551
2022-10-11T05:19:20,42.805,6.029,CST-1368DR,4547,5053,11827,01.112,551
2022-10-11T05:22:22,42.805,6.029,CST-1368DR,4547,5053,11825,01.112,551
2022-10-11T05:25:23,42.805,6.029,CST-1368DR,4547,5053,11826,01.112,551
2022-10-11T05:28:25,42.805,6.029,CST-1368DR,4547,5052,11824,01.113,551
2022-10-11T05:31:26,42.805,6.029,CST-1368DR,4547,5049,11817,01.115,551
2022-10-11T05:34:28,42.805,6.029,CST-1368DR,4547,5052,11824,01.113,551
2022-10-11T05:37:30,42.805,6.029,CST-1368DR,4547,5053,11825,01.112,551
2022-10-11T05:40:31,42.805,6.029,CST-1368DR,4547,5051,11821,01.114,551
2022-10-11T05:43:33,42.805,6.029,CST-1368DR,4547,5050,11819,01.114,551
2022-10-11T05:46:34,42.805,6.029,CST-1368DR,4547,5050,11820,01.114,551
2022-10-11T05:49:36,42.805,6.029,CST-1368DR,4547,5051,11822,01.113,551
2022-10-11T05:52:37,42.805,6.029,CST-1368DR,4547,5049,11817,01.115,551
2022-10-11T05:55:39,42.805,6.029,CST-1368DR,4547,5051,11821,01.114,551
2022-10-11T05:58:41,42.805,6.029,CST-1368DR,4547,5046,11809,01.118,551
2022-10-11T06:01:42,42.805,6.029,CST-1368DR,4547,5050,11818,01.115,551
2022-10-11T06:04:44,42.805,6.029,CST-1368DR,4547,5050,11819,01.114,551
2022-10-11T06:07:45,42.805,6.029,CST-1368DR,4547,5050,11819,01.114,551
2022-10-11T06:10:47,42.805,6.029,CST-1368DR,4547,5046,11810,01.117,551
2022-10-11T06:13:48,42.805,6.029,CST-1368DR,4547,5052,11824,01.113,551
2022-10-11T06:16:50,42.805,6.029,CST-1368DR,4547,5054,11828,01.111,551
2022-10-11T06:19:52,42.805,6.029,CST-1368DR,4547,5051,11821,01.114,551
2022-10-11T06:22:53,42.805,6.029,CST-1368DR,4547,5053,11827,01.112,551
2022-10-11T06:25:55,42.805,6.029,CST-1368DR,4547,5051,11821,01.114,551
2022-10-11T06:28:56,42.805,6.029,CST-1368DR,4547,5052,11824,01.113,551
2022-10-11T06:31:58,42.805,6.029,CST-1368DR,4547,5053,11825,01.112,551
2022-10-11T06:35:00,42.805,6.029,CST-1368DR,4547,5050,11818,01.115,551
2022-10-11T06:38:01,42.805,6.029,CST-1368DR,4547,5048,11814,01.116,551
2022-10-11T06:41:03,42.805,6.029,CST-1368DR,4547,5050,11818,01.115,551
2022-10-11T06:44:04,42.805,6.029,CST-1368DR,4547,5045,11808,01.118,551
2022-10-11T06:47:06,42.805,6.029,CST-1368DR,4547,5050,11818,01.115,551
2022-10-11T06:50:07,42.805,6.029,CST-1368DR,4547,5048,11814,01.116,551
2022-10-11T06:53:09,42.805,6.029,CST-1368DR,4547,5050,11820,01.114,551
2022-10-11T06:56:11,42.805,6.029,CST-1368DR,4547,5047,11812,01.117,551
2022-10-11T06:59:12,42.805,6.029,CST-1368DR,4547,5049,11817,01.115,551
2022-10-11T07:02:14,42.805,6.029,CST-1368DR,4547,5049,11817,01.115,551
2022-10-11T07:05:15,42.805,6.029,CST-1368DR,4547,5048,11813,01.116,551
2022-10-11T07:08:17,42.805,6.029,CST-1368DR,4547,5049,11816,01.115,551
2022-10-11T07:11:19,42.805,6.029,CST-1368DR,4547,5046,11810,01.117,551
2022-10-11T07:14:20,42.805,6.029,CST-1368DR,4547,5048,11813,01.116,551
2022-10-11T07:17:22,42.805,6.029,CST-1368DR,4547,5051,11821,01.114,551
2022-10-11T07:20:23,42.805,6.029,CST-1368DR,4547,5047,11812,01.117,551
2022-10-11T07:23:25,42.805,6.029,CST-1368DR,4547,5051,11821,01.114,551
2022-10-11T07:26:26,42.805,6.029,CST-1368DR,4547,5050,11820,01.114,551
2022-10-11T07:29:28,42.805,6.029,CST-1368DR,4547,5048,11813,01.116,551
2022-10-11T07:32:30,42.805,6.029,CST-1368DR,4547,5047,11811,01.117,551
2022-10-11T07:35:31,42.805,6.029,CST-1368DR,4547,5050,11819,01.114,551
2022-10-11T07:38:33,42.805,6.029,CST-1368DR,4547,5046,11809,01.118,551
2022-10-11T07:41:34,42.805,6.029,CST-1368DR,4547,5050,11818,01.115,551
2022-10-11T07:44:36,42.805,6.029,CST-1368DR,4547,5044,11804,01.119,551
2022-10-11T07:47:37,42.805,6.029,CST-1368DR,4547,5048,11814,01.116,551
2022-10-11T07:50:39,42.805,6.029,CST-1368DR,4547,5045,11807,01.118,551
2022-10-11T07:53:41,42.805,6.029,CST-1368DR,4547,5048,11814,01.116,551
2022-10-11T07:56:42,42.805,6.029,CST-1368DR,4547,5048,11814,01.116,551
2022-10-11T07:59:44,42.805,6.029,CST-1368DR,4547,5039,11794,01.123,551
2022-10-11T08:02:45,42.805,6.029,CST-1368DR,4547,5046,11809,01.118,551
2022-10-11T08:05:47,42.805,6.029,CST-1368DR,4547,5047,11813,01.116,551
2022-10-11T08:08:49,42.805,6.029,CST-1368DR,4547,5044,11804,01.119,551
2022-10-11T08:11:50,42.805,6.029,CST-1368DR,4547,5048,11814,01.116,551
2022-10-11T08:14:52,42.805,6.029,CST-1368DR,4547,5046,11810,01.117,551
2022-10-11T08:17:53,42.805,6.029,CST-1368DR,4547,5049,11817,01.115,551
2022-10-11T08:20:55,42.805,6.029,CST-1368DR,4547,5043,11803,01.120,551
2022-10-11T08:23:56,42.805,6.029,CST-1368DR,4547,5041,11797,01.122,551
2022-10-11T08:26:58,42.805,6.029,CST-1368DR,4547,5044,11805,01.119,551
2022-10-11T08:30:00,42.805,6.029,CST-1368DR,4547,5043,11803,01.120,551
2022-10-11T08:33:01,42.805,6.029,CST-1368DR,4547,5050,11819,01.114,551
2022-10-11T08:36:03,42.805,6.029,CST-1368DR,4547,5049,11816,01.115,551
2022-10-11T08:39:04,42.805,6.029,CST-1368DR,4547,5039,11792,01.123,551
2022-10-11T08:42:06,42.805,6.029,CST-1368DR,4547,5051,11821,01.114,551
2022-10-11T08:45:07,42.805,6.029,CST-1368DR,4547,5047,11811,01.117,551
2022-10-11T08:48:09,42.805,6.029,CST-1368DR,4547,5050,11820,01.114,551
2022-10-11T08:51:11,42.805,6.029,CST-1368DR,4547,5052,11824,01.113,551
2022-10-11T08:54:12,42.805,6.029,CST-1368DR,4547,5060,11842,01.107,551
2022-10-11T08:57:14,42.805,6.029,CST-1368DR,4547,5049,11817,01.115,551
2022-10-11T09:00:15,42.805,6.029,CST-1368DR,4547,5049,11817,01.115,551
2022-10-11T09:03:17,42.805,6.029,CST-1368DR,4547,5048,11814,01.116,551
2022-10-11T09:06:19,42.805,6.029,CST-1368DR,4547,5043,11801,01.120,551
2022-10-11T09:09:20,42.805,6.029,CST-1368DR,4547,5051,11821,01.114,551
2022-10-11T09:12:22,42.805,6.029,CST-1368DR,4547,5045,11806,01.119,551
2022-10-11T09:15:23,42.805,6.029,CST-1368DR,4547,5045,11806,01.119,551
2022-10-11T09:18:25,42.805,6.029,CST-1368DR,4547,5044,11804,01.119,551
2022-10-11T09:21:26,42.805,6.029,CST-1368DR,4547,5042,11800,01.121,551
2022-10-11T09:24:28,42.805,6.029,CST-1368DR,4547,5046,11809,01.118,551
2022-10-11T09:27:30,42.805,6.029,CST-1368DR,4547,5052,11824,01.113,551
2022-10-11T09:30:31,42.805,6.029,CST-1368DR,4547,5048,11813,01.116,551
2022-10-11T09:33:33,42.805,6.029,CST-1368DR,4547,5050,11819,01.114,551
2022-10-11T09:36:34,42.805,6.029,CST-1368DR,4547,5050,11820,01.114,551
2022-10-11T09:39:36,42.805,6.029,CST-1368DR,4547,5047,11812,01.117,551
2022-10-11T09:42:37,42.805,6.029,CST-1368DR,4547,5055,11830,01.111,551
2022-10-11T09:45:39,42.805,6.029,CST-1368DR,4547,5047,11812,01.117,551
2022-10-11T09:48:41,42.805,6.029,CST-1368DR,4547,5051,11820,01.114,551
2022-10-11T09:51:42,42.805,6.029,CST-1368DR,4547,5044,11806,01.119,551
2022-10-11T09:54:44,42.805,6.029,CST-1368DR,4547,5051,11820,01.114,551
2022-10-11T09:57:45,42.805,6.029,CST-1368DR,4547,5050,11820,01.114,551
2022-10-11T10:00:47,42.805,6.029,CST-1368DR,4547,5045,11806,01.119,551
2022-10-11T10:03:49,42.805,6.029,CST-1368DR,4547,5043,11801,01.120,551
2022-10-11T10:06:50,42.805,6.029,CST-1368DR,4547,5046,11810,01.117,551
2022-10-11T10:09:52,42.805,6.029,CST-1368DR,4547,5042,11801,01.120,551
2022-10-11T10:12:53,42.805,6.029,CST-1368DR,4547,5043,11802,01.120,551
2022-10-11T10:15:55,42.805,6.029,CST-1368DR,4547,5043,11803,01.120,551
2022-10-11T10:18:56,42.805,6.029,CST-1368DR,4547,5041,11797,01.122,551
2022-10-11T10:21:58,42.805,6.029,CST-1368DR,4547,5040,11794,01.123,551
2022-10-11T10:25:00,42.805,6.029,CST-1368DR,4547,5038,11791,01.124,551
2022-10-11T10:28:01,42.805,6.029,CST-1368DR,4547,5039,11794,01.123,551
2022-10-11T10:31:03,42.805,6.029,CST-1368DR,4547,5045,11806,01.119,551
2022-10-11T10:34:04,42.805,6.029,CST-1368DR,4547,5039,11793,01.123,551
2022-10-11T10:37:06,42.805,6.029,CST-1368DR,4547,5040,11794,01.123,551
2022-10-11T10:40:08,42.805,6.029,CST-1368DR,4547,5037,11787,01.125,551
2022-10-11T10:43:09,42.805,6.029,CST-1368DR,4547,5039,11793,01.123,551
2022-10-11T10:46:11,42.805,6.029,CST-1368DR,4547,5040,11796,01.122,551
2022-10-11T10:49:12,42.805,6.029,CST-1368DR,4547,5040,11794,01.123,551
2022-10-11T10:52:14,42.805,6.029,CST-1368DR,4547,5040,11796,01.122,551
2022-10-11T10:55:15,42.805,6.029,CST-1368DR,4547,5039,11793,01.123,551
2022-10-11T10:58:17,42.805,6.029,CST-1368DR,4547,5039,11793,01.123,551
2022-10-11T11:01:19,42.805,6.029,CST-1368DR,4547,5040,11796,01.122,551
2022-10-11T11:04:20,42.805,6.029,CST-1368DR,4547,5040,11794,01.123,551
2022-10-11T11:07:22,42.805,6.029,CST-1368DR,4547,5038,11790,01.124,551
2022-10-11T11:10:23,42.805,6.029,CST-1368DR,4547,5040,11796,01.122,551
2022-10-11T11:13:25,42.805,6.029,CST-1368DR,4547,5041,11797,01.122,551
2022-10-11T11:16:26,42.805,6.029,CST-1368DR,4547,5039,11794,01.123,551
2022-10-11T11:19:28,42.805,6.029,CST-1368DR,4547,5041,11798,01.121,551
2022-10-11T11:22:30,42.805,6.029,CST-1368DR,4547,5040,11795,01.122,551
2022-10-11T11:25:31,42.805,6.029,CST-1368DR,4547,5041,11797,01.122,551
2022-10-11T11:28:33,42.805,6.029,CST-1368DR,4546,5041,11801,01.120,551
2022-10-11T11:31:34,42.805,6.029,CST-1368DR,4546,5039,11796,01.122,551
2022-10-11T11:34:36,42.805,6.029,CST-1368DR,4547,5041,11799,01.121,551
2022-10-11T11:37:38,42.805,6.029,CST-1368DR,4546,5042,11803,01.120,551
2022-10-11T11:40:39,42.805,6.029,CST-1368DR,4546,5040,11799,01.121,551
2022-10-11T11:43:41,42.805,6.029,CST-1368DR,4546,5041,11800,01.121,551
2022-10-11T11:46:42,42.805,6.029,CST-1368DR,4546,5040,11799,01.121,551
2022-10-11T11:49:44,42.805,6.029,CST-1368DR,4546,5041,11799,01.121,551
2022-10-11T11:52:45,42.805,6.029,CST-1368DR,4546,5036,11788,01.125,551
2022-10-11T11:55:47,42.805,6.029,CST-1368DR,4546,5039,11795,01.122,551
2022-10-11T11:58:49,42.805,6.029,CST-1368DR,4546,5038,11793,01.123,551
2022-10-11T12:01:50,42.805,6.029,CST-1368DR,4546,5041,11799,01.121,551
2022-10-11T12:04:52,42.805,6.029,CST-1368DR,4546,5041,11800,01.121,551
2022-10-11T12:07:53,42.805,6.029,CST-1368DR,4546,5040,11798,01.121,551
2022-10-11T12:10:55,42.805,6.029,CST-1368DR,4546,5040,11798,01.121,551
2022-10-11T12:13:56,42.805,6.029,CST-1368DR,4546,5037,11791,01.124,551
2022-10-11T12:16:58,42.805,6.029,CST-1368DR,4546,5043,11804,01.119,551
2022-10-11T12:20:00,42.805,6.029,CST-1368DR,4546,5045,11810,01.117,551
2022-10-11T12:23:01,42.805,6.029,CST-1368DR,4546,5043,11806,01.119,551
2022-10-11T12:26:03,42.805,6.029,CST-1368DR,4546,5040,11799,01.121,551
2022-10-11T12:29:04,42.805,6.029,CST-1368DR,4546,5038,11793,01.123,551
2022-10-11T12:32:06,42.805,6.029,CST-1368DR,4546,5034,11784,01.126,551
2022-10-11T12:35:08,42.805,6.029,CST-1368DR,4546,5034,11785,01.126,551
2022-10-11T12:38:09,42.805,6.029,CST-1368DR,4546,5024,11761,01.134,551
2022-10-11T12:41:11,42.805,6.029,CST-1368DR,4546,5028,11769,01.131,551
2022-10-11T12:44:12,42.805,6.029,CST-1368DR,4546,5032,11780,01.128,551
2022-10-11T12:47:14,42.805,6.029,CST-1368DR,4546,5029,11772,01.130,551
2022-10-11T12:50:15,42.805,6.029,CST-1368DR,4546,5030,11774,01.130,551
2022-10-11T12:53:17,42.805,6.029,CST-1368DR,4546,5031,11776,01.129,551
2022-10-11T12:56:19,42.805,6.029,CST-1368DR,4546,5026,11766,01.132,551
2022-10-11T12:59:20,42.805,6.029,CST-1368DR,4546,5027,11768,01.132,551
2022-10-11T13:02:22,42.805,6.029,CST-1368DR,4546,5030,11774,01.130,551
2022-10-11T13:05:23,42.805,6.029,CST-1368DR,4546,5033,11781,01.127,551
2022-10-11T13:08:25,42.805,6.029,CST-1368DR,4546,5031,11776,01.129,551
2022-10-11T13:11:27,42.805,6.029,CST-1368DR,4546,5027,11768,01.132,551
2022-10-11T13:14:28,42.805,6.029,CST-1368DR,4546,5029,11772,01.130,551
2022-10-11T13:17:30,42.805,6.029,CST-1368DR,4546,5029,11773,01.130,551
2022-10-11T13:20:31,42.805,6.029,CST-1368DR,4546,5021,11753,01.137,551
2022-10-11T13:23:33,42.805,6.029,CST-1368DR,4546,5027,11768,01.132,551
2022-10-11T13:26:34,42.805,6.029,CST-1368DR,4546,5027,11767,01.132,551
2022-10-11T13:29:36,42.805,6.029,CST-1368DR,4546,5027,11767,01.132,551
2022-10-11T13:32:38,42.805,6.029,CST-1368DR,4546,5028,11771,01.131,551
2022-10-11T13:35:39,42.805,6.029,CST-1368DR,4546,5031,11776,01.129,551
2022-10-11T13:38:41,42.805,6.029,CST-1368DR,4546,5028,11769,01.131,551
2022-10-11T13:41:42,42.805,6.029,CST-1368DR,4546,5034,11785,01.126,551
2022-10-11T13:44:44,42.805,6.029,CST-1368DR,4546,5040,11798,01.121,551
2022-10-11T13:47:45,42.805,6.029,CST-1368DR,4546,5045,11810,01.117,551
2022-10-11T13:50:47,42.805,6.029,CST-1368DR,4546,5037,11791,01.124,551
2022-10-11T13:53:49,42.805,6.029,CST-1368DR,4546,5047,11815,01.116,550
2022-10-11T13:56:50,42.805,6.029,CST-1368DR,4546,5045,11809,01.118,551
2022-10-11T13:59:52,42.805,6.029,CST-1368DR,4546,5037,11790,01.124,551
2022-10-11T14:02:53,42.805,6.029,CST-1368DR,4546,5038,11793,01.123,551
2022-10-11T14:05:55,42.805,6.029,CST-1368DR,4546,5036,11789,01.125,551
2022-10-11T14:08:57,42.805,6.029,CST-1368DR,4546,5024,11761,01.134,551
2022-10-11T14:11:58,42.805,6.029,CST-1368DR,4546,5030,11774,01.130,551
2022-10-11T14:15:00,42.805,6.029,CST-1368DR,4546,5032,11779,01.128,551
2022-10-11T14:18:01,42.805,6.029,CST-1368DR,4546,5031,11777,01.129,551
2022-10-11T14:21:03,42.805,6.029,CST-1368DR,4546,5031,11778,01.128,551
2022-10-11T14:24:04,42.805,6.029,CST-1368DR,4546,5027,11768,01.132,551
2022-10-11T14:27:06,42.805,6.029,CST-1368DR,4546,5031,11776,01.129,551
2022-10-11T14:30:08,42.805,6.029,CST-1368DR,4546,5027,11767,01.132,551
2022-10-11T14:33:09,42.805,6.029,CST-1368DR,4546,5031,11776,01.129,551
2022-10-11T14:36:11,42.805,6.029,CST-1368DR,4546,5027,11767,01.132,551
2022-10-11T14:39:12,42.805,6.029,CST-1368DR,4546,5029,11771,01.131,551
2022-10-11T14:42:14,42.805,6.029,CST-1368DR,4546,5030,11775,01.129,551
2022-10-11T14:45:16,42.805,6.029,CST-1368DR,4546,5027,11768,01.132,551
2022-10-11T14:48:17,42.805,6.029,CST-1368DR,4546,5029,11773,01.130,551
2022-10-11T14:51:19,42.805,6.029,CST-1368DR,4546,5029,11772,01.130,551
2022-10-11T14:54:20,42.805,6.029,CST-1368DR,4546,5025,11762,01.134,551
2022-10-11T14:57:22,42.805,6.029,CST-1368DR,4546,5032,11779,01.128,551
2022-10-11T15:00:23,42.805,6.029,CST-1368DR,4546,5028,11769,01.131,551
2022-10-11T15:03:25,42.805,6.029,CST-1368DR,4546,5037,11791,01.124,551
2022-10-11T15:06:27,42.805,6.029,CST-1368DR,4546,5040,11798,01.121,551
2022-10-11T15:09:28,42.805,6.029,CST-1368DR,4546,5041,11800,01.121,551
2022-10-11T15:12:30,42.805,6.029,CST-1368DR,4546,5050,11822,01.113,551
2022-10-11T15:15:31,42.805,6.029,CST-1368DR,4546,5050,11822,01.113,551
2022-10-11T15:18:33,42.805,6.029,CST-1368DR,4546,5046,11811,01.117,551
2022-10-11T15:21:34,42.805,6.029,CST-1368DR,4546,5044,11808,01.118,551
2022-10-11T15:24:36,42.805,6.029,CST-1368DR,4546,5053,11829,01.111,551
2022-10-11T15:27:38,42.805,6.029,CST-1368DR,4546,5046,11811,01.117,551
2022-10-11T15:30:39,42.805,6.029,CST-1368DR,4546,5045,11810,01.117,551
2022-10-11T15:33:41,42.805,6.029,CST-1368DR,4546,5048,11816,01.115,551
2022-10-11T15:36:42,42.805,6.029,CST-1368DR,4546,5044,11807,01.118,551
2022-10-11T15:39:44,42.805,6.029,CST-1368DR,4546,5050,11820,01.114,551
2022-10-11T15:42:46,42.805,6.029,CST-1368DR,4546,5043,11805,01.119,551
2022-10-11T15:45:47,42.805,6.029,CST-1368DR,4546,5043,11805,01.119,551
2022-10-11T15:48:49,42.805,6.029,CST-1368DR,4546,5042,11803,01.120,551
2022-10-11T15:51:50,42.805,6.029,CST-1368DR,4546,5049,11819,01.114,551
2022-10-11T15:54:52,42.805,6.029,CST-1368DR,4546,5045,11809,01.118,551
2022-10-11T15:57:53,42.805,6.029,CST-1368DR,4546,5046,11812,01.117,551
2022-10-11T16:00:55,42.805,6.029,CST-1368DR,4546,5046,11812,01.117,551
2022-10-11T16:03:57,42.805,6.029,CST-1368DR,4546,5049,11820,01.114,551
2022-10-11T16:06:58,42.805,6.029,CST-1368DR,4546,5053,11829,01.111,551
2022-10-11T16:10:00,42.805,6.029,CST-1368DR,4546,5048,11817,01.115,551
2022-10-11T16:13:01,42.805,6.029,CST-1368DR,4546,5051,11824,01.113,551
2022-10-11T16:16:03,42.805,6.029,CST-1368DR,4546,5053,11827,01.112,551
2022-10-11T16:19:05,42.805,6.029,CST-1368DR,4546,5040,11798,01.121,551
2022-10-11T16:22:06,42.805,6.029,CST-1368DR,4546,5054,11830,01.111,551
2022-10-11T16:25:08,42.805,6.029,CST-1368DR,4546,5044,11808,01.118,551
2022-10-11T16:28:09,42.805,6.029,CST-1368DR,4546,5051,11824,01.113,551
2022-10-11T16:31:11,42.805,6.029,CST-1368DR,4546,5049,11819,01.114,551
2022-10-11T16:34:12,42.805,6.029,CST-1368DR,4546,5053,11827,01.112,551
2022-10-11T16:37:14,42.805,6.029,CST-1368DR,4546,5046,11812,01.117,551